K5VP Weather Reports


Display with metric or nautical units.
time (UTC)temp
F
wind
direction
speed
MPH
gust
MPH
rain 1hr
in
rain 24hr
in
rain mn
in
humidity
%
barometer
mb
20260504215550 81 162 0.0 4.0 0.00 0.00 0.00 37 1010.4
20260504214942 81 110 1.0 4.0 0.00 0.00 0.00 38 1010.4
20260504214319 82 149 0.0 3.0 0.00 0.00 0.00 37 1010.2
20260504213700 82 170 0.0 1.0 0.00 0.00 0.00 39 1010.2
20260504213026 82 120 0.0 2.0 0.00 0.00 0.00 38 1010.2
20260504212357 82 129 0.0 6.0 0.00 0.00 0.00 37 1010.2
20260504211744 82 139 1.0 7.0 0.00 0.00 0.00 37 1010.2
20260504211122 82 189 1.0 7.0 0.00 0.00 0.00 37 1010.2
20260504210500 82 89 0.0 7.0 0.00 0.00 0.00 39 1010.3
20260504205830 82 120 0.0 1.0 0.00 0.00 0.00 39 1010.3
20260504205153 82 204 1.0 6.0 0.00 0.00 0.00 37 1010.3
20260504204532 82 138 0.0 6.0 0.00 0.00 0.00 38 1010.6
20260504203922 82 73 0.0 6.0 0.00 0.00 0.00 39 1010.4
20260504203253 83 181 0.0 5.0 0.00 0.00 0.00 38 1010.5
20260504202634 83 207 0.0 0.0 0.00 0.00 0.00 41 1010.6
20260504202024 83 236 0.0 3.0 0.00 0.00 0.00 39 1010.7
20260504201411 82 163 0.0 3.0 0.00 0.00 0.00 39 1010.7
20260504200740 82 148 0.0 4.0 0.00 0.00 0.00 38 1010.9
20260504200132 82 162 0.0 6.0 0.00 0.00 0.00 38 1010.9
20260504195512 82 153 1.0 6.0 0.00 0.00 0.00 38 1011.0
20260504194847 82 158 1.0 6.0 0.00 0.00 0.00 39 1011.1
20260504194213 82 154 1.0 5.0 0.00 0.00 0.00 38 1011.1
20260504193548 82 153 0.0 2.0 0.00 0.00 0.00 38 1011.2
20260504192912 82 141 0.0 5.0 0.00 0.00 0.00 41 1011.3
20260504192252 82 122 0.0 5.0 0.00 0.00 0.00 38 1011.5
20260504191639 82 91 0.0 7.0 0.00 0.00 0.00 40 1011.5
20260504191002 82 72 1.0 7.0 0.00 0.00 0.00 40 1011.6
20260504190342 81 164 1.0 7.0 0.00 0.00 0.00 41 1011.7
20260504185820 81 155 0.0 7.0 0.00 0.00 0.00 38 1011.7
20260504185325 81 146 0.0 5.0 0.00 0.00 0.00 40 1011.8
20260504184806 81 162 0.0 8.0 0.00 0.00 0.00 39 1012.0
20260504184247 81 156 0.0 8.0 0.00 0.00 0.00 40 1012.0
20260504183729 81 255 0.0 5.0 0.00 0.00 0.00 41 1012.1
20260504183212 81 147 0.0 5.0 0.00 0.00 0.00 41 1012.2
20260504182708 81 165 0.0 2.0 0.00 0.00 0.00 40 1012.1
20260504182200 81 191 0.0 3.0 0.00 0.00 0.00 39 1012.2
20260504181641 81 150 1.0 8.0 0.00 0.00 0.00 41 1012.2
20260504181141 81 154 1.0 5.0 0.00 0.00 0.00 45 1012.3
20260504180628 81 112 0.0 5.0 0.00 0.00 0.00 45 1012.2
20260504180114 81 37 0.0 3.0 0.00 0.00 0.00 40 1012.3
20260504175556 81 117 0.0 5.0 0.00 0.00 0.00 42 1012.3
20260504175038 80 163 0.0 5.0 0.00 0.00 0.00 43 1012.5
20260504174540 80 212 0.0 8.0 0.00 0.00 0.00 43 1012.5
20260504174037 80 117 0.0 8.0 0.00 0.00 0.00 45 1012.4
20260504173538 80 188 1.0 8.0 0.00 0.00 0.00 44 1012.6
20260504173031 80 60 0.0 8.0 0.00 0.00 0.00 44 1012.7
20260504172513 80 236 0.0 3.0 0.00 0.00 0.00 45 1012.7
20260504172009 80 117 0.0 3.0 0.00 0.00 0.00 43 1012.8
20260504171512 80 101 0.0 5.0 0.00 0.00 0.00 43 1012.9
20260504171002 80 141 0.0 5.0 0.00 0.00 0.00 46 1013.0
20260504170447 79 107 0.0 7.0 0.00 0.00 0.00 46 1013.0
20260504160316 76 188 0.0 4.0 0.00 0.00 0.00 51 1013.9
20260504150643 73 209 0.0 4.0 0.00 0.00 0.00 55 1014.1
20260504150134 73 34 0.0 4.0 0.00 0.00 0.00 55 1014.2
20260504141029 67 123 0.0 0.0 0.00 0.00 0.00 67 1014.5
20260504140510 66 125 0.0 0.0 0.00 0.00 0.00 69 1014.6
20260504130743 61 189 0.0 0.0 0.00 0.00 0.00 75 1014.6
20260504130228 60 186 0.0 0.0 0.00 0.00 0.00 76 1014.5
20260504120132 53 185 0.0 0.0 0.00 0.00 0.00 86 1014.3
20260504110540 52 186 0.0 0.0 0.00 0.00 0.00 83 1014.0
20260504100456 52 186 0.0 0.0 0.00 0.00 0.00 83 1014.0
20260504081802 53 187 0.0 0.0 0.00 0.00 0.00 77 1014.1
20260504081250 53 187 0.0 0.0 0.00 0.00 0.00 77 1014.1
20260504080741 53 187 0.0 0.0 0.00 0.00 0.00 76 1014.2
20260504080231 53 187 0.0 0.0 0.00 0.00 0.00 76 1014.2
20260504070126 52 187 0.0 0.0 0.00 0.00 0.00 79 1014.8
20260504050238 52 187 0.0 0.0 0.00 0.00 0.00 75 1015.6
20260504045728 52 187 0.0 0.0 0.00 0.00 0.00 76 1015.7
20260504045236 52 187 0.0 0.0 0.00 0.00 0.00 77 1015.8
20260504044742 52 187 0.0 0.0 0.00 0.00 0.00 79 1015.8
20260504044245 52 187 0.0 0.0 0.00 0.00 0.00 79 1015.9
20260504043724 52 187 0.0 0.0 0.00 0.00 0.00 79 1015.9
20260504043208 52 187 0.0 0.0 0.00 0.00 0.00 80 1015.9
20260504042704 51 187 0.0 0.0 0.00 0.00 0.00 79 1015.9
20260504042153 51 187 0.0 0.0 0.00 0.00 0.00 78 1015.9
20260504041636 51 187 0.0 0.0 0.00 0.00 0.00 78 1016.0
20260504041138 51 187 0.0 0.0 0.00 0.00 0.00 79 1016.0
20260504040636 51 187 0.0 0.0 0.00 0.00 0.00 78 1016.0
20260504040142 51 187 0.0 0.0 0.00 0.00 0.00 78 1016.1
20260504035648 51 187 0.0 0.0 0.00 0.00 0.00 78 1016.1
20260504035151 51 187 0.0 0.0 0.00 0.00 0.00 78 1016.1
20260504034634 51 187 0.0 0.0 0.00 0.00 0.00 77 1016.1
20260504034117 52 187 0.0 0.0 0.00 0.00 0.00 77 1016.1
20260504033616 52 187 0.0 0.0 0.00 0.00 0.00 76 1016.2
20260504033057 52 187 0.0 0.0 0.00 0.00 0.00 76 1016.2
20260504032537 52 187 0.0 0.0 0.00 0.00 0.00 76 1016.3
20260504032035 52 187 0.0 0.0 0.00 0.00 0.00 76 1016.2
20260504031526 52 187 0.0 0.0 0.00 0.00 0.00 74 1016.3
20260504031026 53 187 0.0 0.0 0.00 0.00 0.00 74 1016.4
20260504030519 53 187 0.0 0.0 0.00 0.00 0.00 73 1016.4
20260504030013 53 187 0.0 0.0 0.00 0.00 0.00 72 1016.5
20260504025456 53 187 0.0 0.0 0.00 0.00 0.00 71 1016.4
20260504024951 53 187 0.0 0.0 0.00 0.00 0.00 71 1016.3
20260504024438 53 187 0.0 0.0 0.00 0.00 0.00 70 1016.4
20260504023930 53 187 0.0 0.0 0.00 0.00 0.00 70 1016.4
20260504023428 54 187 0.0 0.0 0.00 0.00 0.00 69 1016.4
20260504022915 54 187 0.0 0.0 0.00 0.00 0.00 69 1016.4
20260504022415 54 187 0.0 0.0 0.00 0.00 0.00 68 1016.4
20260504021855 54 187 0.0 0.0 0.00 0.00 0.00 69 1016.3
20260504021348 54 187 0.0 0.0 0.00 0.00 0.00 68 1016.3
20260504020845 55 187 0.0 0.0 0.00 0.00 0.00 67 1016.3
20260504020330 55 187 0.0 0.0 0.00 0.00 0.00 66 1016.3
20260504015813 55 187 0.0 0.0 0.00 0.00 0.00 66 1016.3
20260504015304 56 187 0.0 0.0 0.00 0.00 0.00 64 1016.2
20260504014802 56 187 0.0 0.0 0.00 0.00 0.00 63 1016.2
20260504014303 56 187 0.0 0.0 0.00 0.00 0.00 62 1016.0
20260504013758 57 187 0.0 0.0 0.00 0.00 0.00 63 1016.0
20260504013303 57 187 0.0 0.0 0.00 0.00 0.00 62 1015.9
20260504012751 58 187 0.0 0.0 0.00 0.00 0.00 61 1016.0
20260504012246 58 187 0.0 0.0 0.00 0.00 0.00 61 1015.9
20260504011724 59 187 0.0 0.0 0.00 0.00 0.00 60 1015.8
20260504011227 59 187 0.0 0.0 0.00 0.00 0.00 59 1015.8
20260504010716 60 187 0.0 0.0 0.00 0.00 0.00 60 1015.7
20260504010212 60 187 0.0 0.0 0.00 0.00 0.00 59 1015.7
20260504005708 61 187 0.0 0.0 0.00 0.00 0.00 58 1015.7
20260504005148 61 187 0.0 0.0 0.00 0.00 0.00 55 1015.8
20260504004642 62 187 0.0 0.0 0.00 0.00 0.00 56 1015.8
20260504004132 63 187 0.0 0.0 0.00 0.00 0.00 54 1015.9
20260504003621 63 187 0.0 0.0 0.00 0.00 0.00 53 1015.9
20260504003122 64 188 0.0 0.0 0.00 0.00 0.00 48 1015.9
20260504002628 64 188 0.0 0.0 0.00 0.00 0.00 47 1015.9
20260504002113 65 188 0.0 0.0 0.00 0.00 0.00 47 1016.0
20260504001613 65 188 0.0 0.0 0.00 0.00 0.00 46 1016.1
20260504001107 65 188 0.0 0.0 0.00 0.00 0.00 45 1016.2
20260504000559 66 188 0.0 0.0 0.00 0.00 0.00 45 1016.3
20260504000039 66 122 0.0 0.0 0.00 0.00 0.00 47 1016.4
20260503235521 66 105 0.0 0.0 0.00 0.00 0.00 45 1016.4
20260503235018 67 105 0.0 0.0 0.00 0.00 0.00 45 1016.4
20260503234523 67 105 0.0 0.0 0.00 0.00 0.00 43 1016.4
20260503234002 67 136 0.0 0.0 0.00 0.00 0.00 43 1016.6
20260503233455 67 30 0.0 0.0 0.00 0.00 0.00 44 1016.5
20260503232958 68 244 0.0 0.0 0.00 0.00 0.00 45 1016.7
20260503232455 68 155 0.0 1.0 0.00 0.00 0.00 42 1016.7
20260503232000 68 116 0.0 0.0 0.00 0.00 0.00 43 1016.7
20260503231500 68 114 0.0 0.0 0.00 0.00 0.00 41 1016.7
20260503230942 68 153 0.0 1.0 0.00 0.00 0.00 40 1016.8
20260503230439 69 108 0.0 0.0 0.00 0.00 0.00 39 1016.8
20260503225926 69 144 0.0 1.0 0.00 0.00 0.00 38 1016.8
20260503225408 69 144 0.0 2.0 0.00 0.00 0.00 40 1017.0
20260503224912 69 55 0.0 5.0 0.00 0.00 0.00 39 1017.0
20260503224413 69 65 0.0 0.0 0.00 0.00 0.00 40 1016.9
20260503223906 70 114 0.0 0.0 0.00 0.00 0.00 40 1016.9
20260503223413 70 222 0.0 1.0 0.00 0.00 0.00 37 1017.0
20260503222911 70 134 0.0 0.0 0.00 0.00 0.00 38 1017.1
20260503222404 70 160 0.0 0.0 0.00 0.00 0.00 37 1017.2
20260503221851 71 131 0.0 3.0 0.00 0.00 0.00 37 1017.3
20260503221359 71 186 0.0 0.0 0.00 0.00 0.00 37 1017.3
20260503220850 71 165 0.0 0.0 0.00 0.00 0.00 38 1017.4
20260503220341 71 255 0.0 2.0 0.00 0.00 0.00 37 1017.6